EW7528 Weather Reports


time (UTC)temp
F
wind
direction
speed
knots
gust
knots
rain 1hr
in
rain 24hr
in
rain mn
in
humidity
%
barometer
mb
20260506145749 58 91 3.5 9.6 0.00 0.00 0.00 60 1009.3
20260506145243 58 65 3.5 9.6 0.00 0.00 0.00 62 1009.2
20260506144737 58 119 3.5 9.6 0.00 0.00 0.00 59 1009.1
20260506144233 58 35 2.6 7.8 0.00 0.00 0.00 58 1009.1
20260506143727 58 14 2.6 7.8 0.00 0.00 0.00 57 1009.1
20260506143220 58 61 3.5 9.6 0.00 0.00 0.00 58 1009.0
20260506142713 58 72 3.5 9.6 0.00 0.00 0.00 57 1009.1
20260506142209 58 11 3.5 13.0 0.00 0.00 0.00 58 1009.1
20260506141701 58 9 3.5 13.0 0.00 0.00 0.00 57 1009.1
20260506141156 58 17 3.5 8.7 0.00 0.00 0.00 58 1009.1
20260506140909 58 23 3.5 8.7 0.00 0.00 0.00 61 1009.2
20260506140403 58 342 3.5 7.8 0.00 0.00 0.00 63 1009.2
20260506135637 58 45 3.5 9.6 0.00 0.00 0.00 63 1009.2
20260506135132 59 41 4.3 9.6 0.00 0.00 0.00 65 1009.2
20260506134626 59 355 4.3 10.4 0.00 0.00 0.00 62 1009.0
20260506134119 59 0 4.3 10.4 0.00 0.00 0.00 62 1009.1
20260506133614 60 5 3.5 10.4 0.00 0.00 0.00 60 1009.0
20260506133327 60 5 3.5 10.4 0.00 0.00 0.00 62 1009.1
20260506132601 60 48 3.5 11.3 0.00 0.00 0.00 63 1009.0
20260506132327 60 39 4.3 11.3 0.00 0.00 0.00 62 1009.0
20260506131549 60 0 4.3 11.3 0.00 0.00 0.00 60 1008.9
20260506131249 60 335 5.2 13.9 0.00 0.00 0.00 62 1008.9
20260506131135 60 313 3.5 9.6 0.00 0.00 0.00 63 1008.8
20260506130040 60 78 4.3 13.9 0.00 0.00 0.00 61 1008.9
20260506125539 60 344 4.3 10.4 0.00 0.00 0.00 62 1008.8
20260506125039 60 16 3.5 10.4 0.00 0.00 0.00 62 1008.7
20260506124539 60 9 5.2 10.4 0.00 0.00 0.00 64 1008.7
20260506124039 60 5 5.2 10.4 0.00 0.00 0.00 64 1008.7
20260506123540 59 5 3.5 10.4 0.00 0.00 0.00 64 1008.7
20260506123040 59 347 3.5 10.4 0.00 0.00 0.00 66 1008.7
20260506122540 58 17 3.5 9.6 0.00 0.00 0.00 67 1008.6
20260506122040 58 5 3.5 9.6 0.00 0.00 0.00 65 1008.7
20260506121541 58 0 5.2 12.2 0.00 0.00 0.00 64 1008.6
20260506121039 58 9 5.2 12.2 0.00 0.00 0.00 60 1008.7
20260506120539 58 343 6.1 12.2 0.00 0.00 0.00 63 1008.7
20260506120039 58 319 6.1 13.0 0.00 0.00 0.00 60 1008.5
20260506115803 60 348 6.1 13.0 0.00 0.00 0.00 59 1008.6
20260506115037 60 346 7.0 13.9 0.00 0.00 0.00 61 1008.5
20260506114535 60 27 7.0 13.9 0.00 0.00 0.00 58 1008.6
20260506114035 60 5 6.1 13.9 0.00 0.00 0.00 64 1008.4
20260506113529 60 327 6.1 12.2 0.00 0.00 0.00 64 1008.4
20260506113248 60 41 5.2 12.2 0.00 0.00 0.00 65 1008.4
20260506112517 60 341 6.1 12.2 0.00 0.00 0.00 66 1008.4
20260506112013 60 24 5.2 11.3 0.00 0.00 0.00 65 1008.5
20260506111513 60 15 4.3 9.6 0.00 0.00 0.00 64 1008.4
20260506111013 60 20 3.5 8.7 0.00 0.00 0.00 66 1008.4
20260506110513 59 18 4.3 10.4 0.00 0.00 0.00 66 1008.3
20260506110010 58 36 4.3 10.4 0.00 0.00 0.00 66 1008.2
20260506105511 57 350 3.5 9.6 0.00 0.00 0.00 66 1008.4
20260506105010 57 336 3.5 7.8 0.00 0.00 0.00 66 1008.4
20260506104511 57 355 3.5 9.6 0.00 0.00 0.00 66 1008.5
20260506104009 57 44 4.3 10.4 0.00 0.00 0.00 66 1008.4
20260506103509 57 30 4.3 10.4 0.00 0.00 0.00 66 1008.4
20260506103231 57 351 4.3 9.6 0.00 0.00 0.00 65 1008.4
20260506102509 58 17 3.5 9.6 0.00 0.00 0.00 66 1008.4
20260506102009 58 336 4.3 10.4 0.00 0.00 0.00 67 1008.3
20260506101509 57 313 4.3 11.3 0.00 0.00 0.00 68 1008.4
20260506101448 58 355 5.2 11.3 0.00 0.00 0.00 69 1008.3
20260506100509 58 335 5.2 13.0 0.00 0.00 0.00 69 1008.5
20260506100009 58 333 4.3 13.0 0.00 0.00 0.00 71 1008.4
20260506095508 58 348 4.3 11.3 0.00 0.00 0.00 73 1008.4
20260506095009 58 342 4.3 10.4 0.00 0.00 0.00 73 1008.3
20260506094508 58 336 4.3 11.3 0.00 0.00 0.00 73 1008.4
20260506094225 58 344 5.2 13.0 0.00 0.00 0.00 73 1008.3
20260506093502 58 348 5.2 13.0 0.00 0.00 0.00 72 1008.3
20260506093003 58 5 4.3 13.0 0.00 0.00 0.00 73 1008.3
20260506092503 58 23 4.3 10.4 0.00 0.00 0.00 75 1008.4
20260506092004 57 355 3.5 10.4 0.00 0.00 0.00 75 1008.3
20260506091503 57 329 3.5 9.6 0.00 0.00 0.00 76 1008.2
20260506091002 57 355 3.5 9.6 0.00 0.00 0.00 75 1008.2
20260506090503 56 347 4.3 10.4 0.00 0.00 0.00 75 1008.2
20260506090002 56 350 4.3 10.4 0.00 0.00 0.00 76 1008.1
20260506085723 56 337 5.2 12.2 0.00 0.00 0.00 76 1008.2
20260506085002 56 355 6.1 13.0 0.00 0.00 0.00 76 1008.2
20260506084731 56 34 5.2 13.0 0.00 0.00 0.00 77 1008.2
20260506084221 56 351 5.2 11.3 0.00 0.00 0.00 78 1008.2
20260506083502 56 348 5.2 11.3 0.00 0.00 0.00 79 1008.1
20260506083003 55 350 5.2 11.3 0.00 0.00 0.00 80 1008.1
20260506082725 55 346 4.3 10.4 0.00 0.00 0.00 81 1007.9
20260506082001 55 21 5.2 12.2 0.00 0.00 0.00 82 1008.0
20260506081500 54 342 5.2 12.2 0.00 0.00 0.00 82 1008.0
20260506080956 54 320 5.2 12.2 0.00 0.00 0.00 83 1008.0
20260506080447 54 0 4.3 10.4 0.00 0.00 0.00 83 1008.0
20260506073415 53 350 3.5 8.7 0.00 0.00 0.00 86 1008.1
20260506072916 53 327 2.6 8.7 0.00 0.00 0.00 87 1007.9
20260506072414 53 0 3.5 10.4 0.00 0.00 0.00 87 1007.8
20260506071914 52 346 4.3 10.4 0.00 0.00 0.00 87 1007.9
20260506071413 52 26 4.3 9.6 0.00 0.00 0.00 88 1007.9
20260506070914 52 323 4.3 9.6 0.00 0.00 0.00 89 1007.9
20260506070412 52 340 4.3 10.4 0.00 0.00 0.00 89 1007.9
20260506061954 50 347 1.7 9.6 0.00 0.00 0.00 93 1007.7
20260506061222 50 355 1.7 7.0 0.00 0.00 0.00 93 1007.7
20260506060718 50 5 1.7 7.0 0.00 0.00 0.00 93 1007.7
20260506060210 50 355 1.7 7.0 0.00 0.00 0.00 93 1007.7
20260506051128 49 355 2.6 7.8 0.00 0.00 0.00 93 1007.8
20260506050628 49 9 2.6 7.8 0.00 0.00 0.00 93 1007.8
20260506050350 49 13 2.6 9.6 0.00 0.00 0.00 92 1007.8
20260506045128 49 0 1.7 8.7 0.00 0.00 0.00 92 1007.8
20260506044629 49 9 2.6 7.0 0.00 0.00 0.00 92 1007.9
20260506044128 49 355 3.5 8.7 0.00 0.00 0.00 92 1007.8
20260506043626 49 18 3.5 8.7 0.00 0.00 0.00 92 1007.9
20260506043126 49 14 3.5 7.8 0.00 0.00 0.00 91 1007.9
20260506042626 49 334 3.5 7.8 0.00 0.00 0.00 91 1007.9
20260506042125 49 22 2.6 8.7 0.00 0.00 0.00 91 1007.9
20260506041627 49 10 2.6 9.6 0.00 0.00 0.00 91 1007.9
20260506041347 49 9 2.6 9.6 0.00 0.00 0.00 90 1007.8
20260506040843 49 343 3.5 8.7 0.00 0.00 0.00 90 1007.9
20260506040122 49 355 3.5 7.8 0.00 0.00 0.00 89 1007.8
20260506035623 49 355 3.5 7.8 0.00 0.00 0.00 89 1007.8
20260506035122 50 348 4.3 9.6 0.00 0.00 0.00 88 1007.8
20260506034846 50 350 3.5 9.6 0.00 0.00 0.00 88 1007.8
20260506034340 50 334 2.6 7.8 0.00 0.00 0.00 87 1007.9
20260506033623 50 5 4.3 10.4 0.00 0.00 0.00 87 1007.9
20260506033122 50 0 4.3 10.4 0.00 0.00 0.00 86 1007.9
20260506032622 50 5 3.5 9.6 0.00 0.00 0.00 86 1007.9
20260506032122 50 340 2.6 8.7 0.00 0.00 0.00 86 1007.9
20260506031622 50 355 3.5 8.7 0.00 0.00 0.00 86 1007.9
20260506031121 50 17 2.6 8.7 0.00 0.00 0.00 86 1007.9
20260506030839 50 334 2.6 8.7 0.00 0.00 0.00 86 1008.0
20260506030117 50 5 3.5 8.7 0.00 0.00 0.00 86 1008.0
20260506025618 50 19 3.5 9.6 0.00 0.00 0.00 86 1008.1
20260506025340 50 0 3.5 9.6 0.00 0.00 0.00 86 1008.1
20260506024617 50 14 3.5 8.7 0.00 0.00 0.00 86 1008.1
20260506024117 50 5 3.5 8.7 0.00 0.00 0.00 86 1008.1
20260506023617 50 355 3.5 9.6 0.00 0.00 0.00 86 1008.2
20260506023117 50 347 5.2 12.2 0.00 0.00 0.00 86 1008.1
20260506022619 50 355 3.5 12.2 0.00 0.00 0.00 86 1008.2
20260506022117 50 355 3.5 9.6 0.00 0.00 0.00 86 1008.2
20260506021612 50 355 3.5 9.6 0.00 0.00 0.00 85 1008.2
20260506021105 50 5 3.5 9.6 0.00 0.00 0.00 85 1008.2
20260506020557 50 355 2.6 8.7 0.00 0.00 0.00 85 1008.2
20260506020051 50 348 2.6 10.4 0.00 0.00 0.00 85 1008.2
20260506015545 50 348 2.6 10.4 0.00 0.00 0.00 85 1008.3
20260506015305 50 5 1.7 7.0 0.00 0.00 0.00 85 1008.3
20260506014756 50 5 2.6 7.8 0.00 0.00 0.00 84 1008.3
20260506014027 50 351 2.6 9.6 0.00 0.00 0.00 84 1008.3
20260506013521 50 5 3.5 9.6 0.00 0.00 0.00 84 1008.2
20260506013014 50 338 3.5 10.4 0.00 0.00 0.00 84 1008.2
20260506012509 50 355 3.5 10.4 0.00 0.00 0.00 84 1008.2
20260506012002 50 351 3.5 8.7 0.00 0.00 0.00 84 1008.2
20260506011459 50 355 2.6 8.7 0.00 0.00 0.00 84 1008.3
20260506010951 50 355 4.3 9.6 0.00 0.00 0.00 83 1008.4
20260506010707 50 0 4.3 9.6 0.00 0.00 0.00 83 1008.4
20260506005940 50 14 2.6 7.8 0.00 0.00 0.00 83 1008.5
20260506005433 50 355 1.7 7.0 0.00 0.00 0.00 83 1008.5
20260506005150 50 11 3.5 10.4 0.00 0.00 0.00 83 1008.6
20260506004422 50 348 4.3 10.4 0.00 0.00 0.00 83 1008.7
20260506004408 50 23 4.3 9.6 0.00 0.00 0.00 83 1008.6
20260506003408 50 355 3.5 7.8 0.00 0.00 0.00 83 1008.7
20260506002903 50 0 2.6 8.7 0.00 0.00 0.00 83 1008.7
20260506002358 50 341 2.6 8.7 0.00 0.00 0.00 82 1008.7
20260506001852 50 349 2.6 7.0 0.00 0.00 0.00 82 1008.8
20260506001345 50 0 2.6 7.0 0.00 0.00 0.00 82 1008.8
20260506000839 50 5 1.7 8.7 0.00 0.00 0.00 82 1008.8
20260506000607 50 14 1.7 8.7 0.00 0.00 0.00 82 1008.8
20260505235826 50 355 2.6 7.8 0.00 0.00 0.00 82 1008.8
20260505235321 50 355 2.6 8.7 0.00 0.00 0.00 82 1008.8
20260505234815 50 0 3.5 8.7 0.00 0.00 0.00 82 1008.8
20260505234309 50 344 3.5 8.7 0.00 0.00 0.00 82 1008.9
20260505233804 50 355 2.6 8.7 0.00 0.00 0.00 82 1008.9
20260505233519 50 23 2.6 7.8 0.00 0.00 0.00 82 1008.9
20260505232753 50 355 3.5 10.4 0.00 0.00 0.00 82 1008.9
20260505232245 50 17 4.3 10.4 0.00 0.00 0.00 82 1009.0
20260505231746 50 5 3.5 9.6 0.00 0.00 0.00 82 1009.5
20260505231245 50 0 2.6 8.7 0.00 0.00 0.00 82 1009.0
20260505231230 50 350 2.6 6.1 0.00 0.00 0.00 82 1009.1
20260505230245 50 5 2.6 9.6 0.00 0.00 0.00 81 1009.1
20260505225743 50 16 2.6 9.6 0.00 0.00 0.00 81 1009.1
20260505225243 50 333 2.6 7.8 0.00 0.00 0.00 81 1009.1
20260505225005 50 355 2.6 7.8 0.00 0.00 0.00 81 1009.1
20260505224243 50 5 3.5 7.8 0.00 0.00 0.00 81 1009.0
20260505223742 50 355 2.6 7.0 0.00 0.00 0.00 81 1009.1
20260505223247 50 343 3.5 8.7 0.00 0.00 0.00 81 1009.1
20260505223243 50 5 2.6 7.0 0.00 0.00 0.00 81 1009.2
20260505222243 50 331 4.3 8.7 0.00 0.00 0.00 81 1009.1
20260505222232 50 40 3.5 8.7 0.00 0.00 0.00 81 1009.1
20260505221510 51 17 3.5 8.7 0.00 0.00 0.00 81 1009.1
20260505220743 51 355 3.5 8.7 0.00 0.00 0.00 81 1009.2
20260505220243 51 355 3.5 7.8 0.00 0.00 0.00 82 1009.3
20260505215736 51 0 3.5 8.7 0.00 0.00 0.00 81 1009.0
20260505215230 51 10 3.5 8.7 0.00 0.00 0.00 81 1009.3
20260505214724 51 0 2.6 7.8 0.00 0.00 0.00 81 1009.3
20260505214218 51 0 3.5 7.8 0.00 0.00 0.00 81 1009.2
20260505213713 51 29 4.3 7.8 0.00 0.00 0.00 81 1009.3
20260505213657 51 355 3.5 9.6 0.00 0.00 0.00 80 1009.4
20260505212700 51 5 3.5 12.2 0.00 0.00 0.00 80 1009.3
20260505212154 51 350 4.3 12.2 0.00 0.00 0.00 80 1009.3
20260505212134 52 339 3.5 9.6 0.00 0.00 0.00 79 1009.3
20260505211145 52 346 3.5 7.8 0.00 0.00 0.00 79 1009.3
20260505210644 52 15 3.5 8.7 0.00 0.00 0.00 79 1009.4
20260505210144 52 339 3.5 8.7 0.00 0.00 0.00 79 1009.3
20260505205645 52 5 4.3 9.6 0.00 0.00 0.00 78 1009.4
20260505205145 52 350 4.3 13.0 0.00 0.00 0.00 78 1009.4
20260505204905 52 0 5.2 13.0 0.00 0.00 0.00 78 1009.4
20260505204145 52 344 6.1 13.0 0.00 0.00 0.00 77 1009.4
20260505203644 53 5 6.1 13.0 0.00 0.00 0.00 77 1009.4
20260505203400 53 5 6.1 12.2 0.00 0.00 0.00 77 1009.4
20260505202909 53 26 7.0 13.9 0.00 0.00 0.00 77 1009.4
20260505202144 53 20 6.1 13.9 0.00 0.00 0.00 77 1009.5
20260505201644 53 5 4.3 11.3 0.00 0.00 0.00 77 1009.5
20260505201145 53 34 5.2 13.0 0.00 0.00 0.00 77 1009.5
20260505200646 53 21 7.0 13.9 0.00 0.00 0.00 77 1009.5
20260505200144 53 346 7.0 13.9 0.00 0.00 0.00 77 1009.5
20260505195644 53 5 7.0 13.9 0.00 0.00 0.00 77 1009.4
20260505195144 53 22 7.0 13.0 0.00 0.00 0.00 77 1009.4
20260505194638 53 0 6.1 13.0 0.00 0.00 0.00 77 1009.5
20260505194358 54 9 6.1 13.0 0.00 0.00 0.00 77 1009.4
20260505193628 54 9 5.2 11.3 0.00 0.00 0.00 77 1009.3
20260505193120 54 9 6.1 13.9 0.00 0.00 0.00 76 1009.2
20260505192614 54 19 6.1 13.9 0.00 0.00 0.00 76 1009.1
20260505192112 54 38 6.1 13.0 0.00 0.00 0.00 75 1009.1
20260505191613 54 20 6.1 17.4 0.00 0.00 0.00 75 1009.1
20260505191112 54 351 5.2 17.4 0.00 0.00 0.00 75 1009.0
20260505190612 54 0 5.2 12.2 0.00 0.00 0.00 75 1009.0
20260505190112 55 5 4.3 12.2 0.00 0.00 0.00 76 1008.9
20260505185838 55 355 4.3 13.0 0.00 0.00 0.00 75 1008.9
20260505185112 55 355 5.2 13.0 0.00 0.00 0.00 75 1008.9
20260505184615 55 5 5.2 11.3 0.00 0.00 0.00 74 1008.8
20260505184110 55 355 5.2 10.4 0.00 0.00 0.00 74 1008.9
20260505183610 55 24 5.2 12.2 0.00 0.00 0.00 74 1008.8
20260505183331 55 349 5.2 12.2 0.00 0.00 0.00 74 1008.8
20260505182610 56 355 4.3 12.2 0.00 0.00 0.00 74 1008.8
20260505182112 56 0 4.3 10.4 0.00 0.00 0.00 74 1008.8
20260505181610 56 9 4.3 10.4 0.00 0.00 0.00 74 1008.7
20260505181107 56 355 4.3 9.6 0.00 0.00 0.00 74 1008.7
20260505180606 56 0 6.1 16.5 0.00 0.00 0.00 73 1008.7
20260505180107 56 327 6.1 16.5 0.00 0.00 0.00 73 1008.6
20260505175605 57 11 4.3 10.4 0.00 0.00 0.00 73 1008.6
20260505175106 57 30 4.3 10.4 0.00 0.00 0.00 73 1008.6
20260505174825 57 20 5.2 14.8 0.00 0.00 0.00 73 1008.5
20260505174106 57 349 5.2 14.8 0.00 0.00 0.00 72 1008.4
20260505173828 57 19 5.2 10.4 0.00 0.00 0.00 72 1008.5
20260505173106 58 12 5.2 13.0 0.00 0.00 0.00 72 1008.5
20260505172603 58 0 5.2 13.0 0.00 0.00 0.00 72 1008.6
20260505172104 58 12 5.2 11.3 0.00 0.00 0.00 72 1008.6
20260505171603 58 5 6.1 14.8 0.00 0.00 0.00 72 1008.7
20260505171331 58 355 6.1 14.8 0.00 0.00 0.00 72 1008.7
20260505170601 58 355 5.2 11.3 0.00 0.00 0.00 72 1008.6
20260505170103 58 336 4.3 10.4 0.00 0.00 0.00 72 1008.7
20260505165825 59 5 5.2 10.4 0.00 0.00 0.00 72 1008.8
20260505165102 59 341 5.2 10.4 0.00 0.00 0.00 72 1008.8
20260505164602 59 36 5.2 11.3 0.00 0.00 0.00 72 1008.8
20260505164101 59 20 5.2 11.3 0.00 0.00 0.00 72 1008.9
20260505163825 59 18 6.1 11.3 0.00 0.00 0.00 72 1008.9
20260505163101 59 14 6.1 13.9 0.00 0.00 0.00 72 1008.9
20260505162602 59 39 4.3 13.9 0.00 0.00 0.00 72 1008.9
20260505162106 59 9 4.3 11.3 0.00 0.00 0.00 73 1008.9
20260505162059 59 340 6.1 11.3 0.00 0.00 0.00 72 1008.9
20260505161054 59 5 6.1 12.2 0.00 0.00 0.00 72 1008.9
20260505160547 59 0 5.2 10.4 0.00 0.00 0.00 72 1008.9
20260505153005 59 348 4.3 12.2 0.00 0.00 0.00 75 1008.9
20260505152458 59 348 3.5 12.2 0.00 0.00 0.00 75 1009.0
20260505151953 59 346 2.6 8.7 0.00 0.00 0.00 75 1009.1
20260505151447 59 346 1.7 7.8 0.00 0.00 0.00 74 1009.1
20260505150941 59 5 1.7 6.1 0.00 0.00 0.00 75 1009.0
20260505150437 59 9 2.6 6.1 0.00 0.00 0.00 76 1009.2